RYR5RU LDZD-EPKT

Flight info

Callsign RYR5RU
Flight time 1h 10m
Altitude 33000
Route PALEZ DCT KOPRY DCT OLATI DCT XOMBA DCT TURIS DCT KREMI/N0442F320 DCT NIDOK/N0388F230 M985 MEBAN
Aircraft A320/M-SDE3FGHIRWY/LB1

Departure

Time 2026-05-08 08:24
Airport Zadar Airport (LDZD)

Arrival

Time 2026-05-08 09:34
Airport Katowice Wojciech Korfanty International Airport (EPKT)
Time Latitude Longitude Altitude Speed Heading
2026-05-08 07:47 44.09688 15.35436 279 ft 0 kts 270°
2026-05-08 08:13 44.09688 15.35447 279 ft 4 kts 270°
2026-05-08 08:13 44.09688 15.35484 279 ft 4 kts 276°
2026-05-08 08:14 44.09681 15.35519 286 ft 4 kts 304°
2026-05-08 08:14 44.09664 15.35539 282 ft 3 kts 356°
2026-05-08 08:14 44.09656 15.35539 280 ft 0 kts 358°
2026-05-08 08:17 44.09687 15.35538 283 ft 9 kts 358°
2026-05-08 08:17 44.09744 15.35536 279 ft 7 kts 359°
2026-05-08 08:17 44.09812 15.35531 279 ft 12 kts 354°
2026-05-08 08:18 44.09889 15.35517 282 ft 10 kts 346°
2026-05-08 08:18 44.09945 15.35463 279 ft 12 kts 314°
2026-05-08 08:18 44.10027 15.35350 279 ft 19 kts 315°
2026-05-08 08:18 44.10122 15.35221 279 ft 19 kts 316°
2026-05-08 08:19 44.10221 15.35088 279 ft 21 kts 316°
2026-05-08 08:19 44.10335 15.34934 279 ft 24 kts 315°
2026-05-08 08:19 44.10458 15.34765 279 ft 25 kts 316°
2026-05-08 08:19 44.10590 15.34589 277 ft 27 kts 315°
2026-05-08 08:20 44.10728 15.34400 276 ft 29 kts 315°
2026-05-08 08:20 44.10874 15.34201 274 ft 30 kts 316°
2026-05-08 08:20 44.11027 15.33997 272 ft 31 kts 316°
2026-05-08 08:20 44.11183 15.33785 270 ft 31 kts 315°
2026-05-08 08:21 44.11333 15.33583 268 ft 28 kts 316°
2026-05-08 08:21 44.11445 15.33432 267 ft 19 kts 316°
2026-05-08 08:21 44.11505 15.33367 266 ft 9 kts 344°
2026-05-08 08:21 44.11549 15.33402 265 ft 7 kts 63°
2026-05-08 08:22 44.11572 15.33464 264 ft 8 kts 56°
2026-05-08 08:22 44.11617 15.33535 258 ft 14 kts 50°
2026-05-08 08:22 44.11610 15.33613 258 ft 0 kts 135°
2026-05-08 08:23 44.11575 15.33661 259 ft 29 kts 135°
2026-05-08 08:23 44.11247 15.34106 265 ft 99 kts 136°
2026-05-08 08:23 44.10615 15.34966 277 ft 152 kts 133°
2026-05-08 08:23 44.09855 15.36028 804 ft 154 kts 133°
2026-05-08 08:24 44.09083 15.37084 1405 ft 156 kts 134°
2026-05-08 08:24 44.08268 15.38185 1792 ft 175 kts 134°
2026-05-08 08:24 44.07351 15.39421 2055 ft 198 kts 134°
2026-05-08 08:24 44.06299 15.40837 2366 ft 222 kts 135°
2026-05-08 08:25 44.05141 15.42389 2878 ft 240 kts 135°
2026-05-08 08:25 44.03909 15.44047 3536 ft 253 kts 136°
2026-05-08 08:25 44.02628 15.45753 4374 ft 257 kts 136°
2026-05-08 08:25 44.01328 15.47487 5239 ft 261 kts 136°
2026-05-08 08:26 44.00023 15.49268 6106 ft 264 kts 131°
2026-05-08 08:26 43.99090 15.51480 6913 ft 270 kts 108°
2026-05-08 08:26 43.98928 15.54084 7681 ft 277 kts 82°
2026-05-08 08:26 43.99652 15.56583 8445 ft 286 kts 54°
2026-05-08 08:27 44.01167 15.58386 9202 ft 293 kts 26°
2026-05-08 08:27 44.03153 15.59013 9967 ft 298 kts 359°
2026-05-08 08:27 44.05249 15.58834 10495 ft 311 kts 355°
2026-05-08 08:27 44.07482 15.58592 10703 ft 333 kts 355°
2026-05-08 08:28 44.09855 15.58326 11104 ft 347 kts 355°
2026-05-08 08:28 44.12281 15.58057 11759 ft 352 kts 355°
2026-05-08 08:28 44.14736 15.57792 12478 ft 355 kts 355°
2026-05-08 08:28 44.17206 15.57532 13237 ft 357 kts 355°
2026-05-08 08:29 44.19690 15.57271 13979 ft 358 kts 355°
2026-05-08 08:29 44.22184 15.57011 14604 ft 361 kts 355°
2026-05-08 08:29 44.24706 15.56749 15182 ft 365 kts 355°
2026-05-08 08:29 44.27257 15.56485 15748 ft 370 kts 355°
2026-05-08 08:30 44.29838 15.56218 16309 ft 374 kts 355°
2026-05-08 08:30 44.32454 15.55943 16854 ft 379 kts 355°
2026-05-08 08:30 44.37781 15.55381 17955 ft 388 kts 355°
2026-05-08 08:31 44.40486 15.55101 18492 ft 392 kts 355°
2026-05-08 08:31 44.43183 15.54822 18978 ft 395 kts 355°
2026-05-08 08:31 44.45935 15.54535 19494 ft 398 kts 354°
2026-05-08 08:31 44.48712 15.54241 19998 ft 402 kts 354°
2026-05-08 08:32 44.51511 15.53943 20490 ft 405 kts 354°
2026-05-08 08:32 44.54343 15.53763 20997 ft 410 kts
2026-05-08 08:32 44.57182 15.54263 21495 ft 415 kts 11°
2026-05-08 08:32 44.59947 15.55521 21966 ft 421 kts 22°
2026-05-08 08:33 44.62545 15.57466 22417 ft 426 kts 30°
2026-05-08 08:33 44.65107 15.59595 22850 ft 430 kts 30°
2026-05-08 08:33 44.67688 15.61747 23271 ft 433 kts 30°
2026-05-08 08:33 44.70290 15.63921 23696 ft 437 kts 29°
2026-05-08 08:34 44.72911 15.66114 24079 ft 440 kts 29°
2026-05-08 08:34 44.75550 15.68319 24459 ft 442 kts 29°
2026-05-08 08:34 44.78203 15.70537 24821 ft 444 kts 29°
2026-05-08 08:34 44.80867 15.72766 25177 ft 447 kts 29°
2026-05-08 08:35 44.83545 15.75010 25501 ft 449 kts 29°
2026-05-08 08:35 44.86237 15.77269 25798 ft 452 kts 29°
2026-05-08 08:35 44.88946 15.79546 26146 ft 454 kts 28°
2026-05-08 08:35 44.91662 15.81827 26489 ft 456 kts 28°
2026-05-08 08:36 44.94391 15.84119 26810 ft 458 kts 28°
2026-05-08 08:36 44.97101 15.86395 27131 ft 460 kts 28°
2026-05-08 08:36 44.99856 15.88713 27454 ft 462 kts 28°
2026-05-08 08:36 45.02622 15.91046 27769 ft 465 kts 28°
2026-05-08 08:37 45.05404 15.93398 28088 ft 467 kts 28°
2026-05-08 08:37 45.08196 15.95766 28375 ft 469 kts 28°
2026-05-08 08:37 45.11006 15.98152 28657 ft 471 kts 28°
2026-05-08 08:37 45.13818 16.00542 28951 ft 474 kts 28°
2026-05-08 08:38 45.16653 16.02952 29218 ft 476 kts 28°
2026-05-08 08:38 45.19498 16.05367 29488 ft 478 kts 28°
2026-05-08 08:38 45.22354 16.07796 29752 ft 480 kts 28°
2026-05-08 08:38 45.25226 16.10245 29994 ft 482 kts 28°
2026-05-08 08:39 45.28102 16.12699 30210 ft 484 kts 28°
2026-05-08 08:39 45.30998 16.15172 30406 ft 486 kts 28°
2026-05-08 08:39 45.33900 16.17653 30615 ft 488 kts 28°
2026-05-08 08:39 45.36793 16.20127 30843 ft 488 kts 28°
2026-05-08 08:40 45.39698 16.22618 31123 ft 487 kts 28°
2026-05-08 08:40 45.42597 16.25108 31422 ft 487 kts 28°
2026-05-08 08:40 45.45495 16.27602 31683 ft 486 kts 28°
2026-05-08 08:40 45.48387 16.30096 31953 ft 486 kts 28°
2026-05-08 08:41 45.51277 16.32589 32226 ft 485 kts 28°
2026-05-08 08:41 45.54163 16.35077 32505 ft 485 kts 28°
2026-05-08 08:41 45.57048 16.37567 32781 ft 484 kts 28°
2026-05-08 08:41 45.59924 16.40055 33030 ft 484 kts 28°
2026-05-08 08:42 45.65606 16.44972 33105 ft 477 kts 27°
2026-05-08 08:42 45.71271 16.49893 33107 ft 476 kts 28°
2026-05-08 08:43 45.76924 16.54811 33123 ft 476 kts 27°
2026-05-08 08:43 45.82595 16.59753 33107 ft 478 kts 27°
2026-05-08 08:44 45.88292 16.64735 33228 ft 482 kts 27°
2026-05-08 08:44 45.91157 16.67246 33451 ft 483 kts 27°
2026-05-08 08:44 45.94026 16.69763 33717 ft 483 kts 27°
2026-05-08 08:45 45.96895 16.72280 34015 ft 483 kts 27°
2026-05-08 08:45 45.99760 16.74797 34242 ft 483 kts 27°
2026-05-08 08:45 46.02627 16.77319 34472 ft 483 kts 27°
2026-05-08 08:45 46.05497 16.79848 34713 ft 483 kts 27°
2026-05-08 08:46 46.08358 16.82374 34944 ft 482 kts 27°
2026-05-08 08:46 46.11222 16.84907 35084 ft 483 kts 27°
2026-05-08 08:46 46.16941 16.89976 35103 ft 482 kts 27°
2026-05-08 08:47 46.22645 16.95039 35103 ft 481 kts 27°
2026-05-08 08:47 46.28536 16.99340 35103 ft 477 kts 20°
2026-05-08 08:48 46.34541 17.03426 35100 ft 477 kts 20°
2026-05-08 08:48 46.40536 17.07531 35099 ft 476 kts 20°
2026-05-08 08:49 46.46529 17.11646 35102 ft 476 kts 20°
2026-05-08 08:49 46.52519 17.15772 35125 ft 477 kts 19°
2026-05-08 08:50 46.58504 17.19908 35119 ft 477 kts 19°
2026-05-08 08:50 46.64497 17.24049 35115 ft 477 kts 19°
2026-05-08 08:51 46.70483 17.28198 35126 ft 477 kts 19°
2026-05-08 08:51 46.76472 17.32364 35116 ft 477 kts 19°
2026-05-08 08:52 46.81444 17.35823 35103 ft 477 kts 19°
2026-05-08 08:52 46.87427 17.39994 35098 ft 476 kts 19°
2026-05-08 08:53 46.94376 17.44853 35111 ft 476 kts 20°
2026-05-08 08:53 46.99377 17.48369 35102 ft 476 kts 20°
2026-05-08 08:54 47.05308 17.52715 35090 ft 477 kts 21°
2026-05-08 08:54 47.11167 17.57165 35106 ft 477 kts 22°
2026-05-08 08:55 47.17093 17.61669 35102 ft 476 kts 22°
2026-05-08 08:55 47.22951 17.66076 35091 ft 476 kts 21°
2026-05-08 08:56 47.28849 17.70496 35107 ft 475 kts 21°
2026-05-08 08:56 47.34740 17.74934 35102 ft 475 kts 22°
2026-05-08 08:57 47.40615 17.79392 35096 ft 475 kts 22°
2026-05-08 08:57 47.46483 17.83863 35089 ft 474 kts 22°
2026-05-08 08:58 47.52352 17.88325 35080 ft 474 kts 22°
2026-05-08 08:58 47.58223 17.92792 35077 ft 474 kts 22°
2026-05-08 08:59 47.64082 17.97281 35075 ft 474 kts 22°
2026-05-08 08:59 47.69941 18.01781 35094 ft 474 kts 22°
2026-05-08 09:00 47.75792 18.06281 35086 ft 473 kts 22°
2026-05-08 09:00 47.81667 18.10680 35082 ft 472 kts 21°
2026-05-08 09:01 47.87566 18.14967 35091 ft 472 kts 20°
2026-05-08 09:01 47.93466 18.19269 35078 ft 472 kts 21°
2026-05-08 09:02 47.99354 18.23620 35071 ft 472 kts 21°
2026-05-08 09:02 48.05196 18.27967 35067 ft 472 kts 21°
2026-05-08 09:03 48.11080 18.32340 35071 ft 473 kts 21°
2026-05-08 09:03 48.16978 18.36725 35062 ft 473 kts 21°
2026-05-08 09:04 48.22863 18.41133 35055 ft 473 kts 21°
2026-05-08 09:04 48.28750 18.45548 35062 ft 473 kts 21°
2026-05-08 09:05 48.34644 18.49969 35056 ft 473 kts 21°
2026-05-08 09:05 48.40477 18.54611 35053 ft 476 kts 25°
2026-05-08 09:06 48.46175 18.59704 35072 ft 477 kts 26°
2026-05-08 09:06 48.51853 18.64877 35060 ft 477 kts 26°
2026-05-08 09:07 48.57523 18.69929 35057 ft 476 kts 25°
2026-05-08 09:07 48.63252 18.74960 35055 ft 476 kts 25°
2026-05-08 09:08 48.68972 18.80003 35066 ft 476 kts 25°
2026-05-08 09:08 48.74902 18.84228 35058 ft 466 kts 11°
2026-05-08 09:09 48.81189 18.85700 35054 ft 452 kts 353°
2026-05-08 09:09 48.87461 18.86197 35075 ft 462 kts 10°
2026-05-08 09:10 48.90490 18.87966 35064 ft 471 kts 23°
2026-05-08 09:10 48.93274 18.90638 35054 ft 477 kts 34°
2026-05-08 09:10 48.98241 18.97418 35046 ft 481 kts 39°
2026-05-08 09:11 49.03180 19.04295 35053 ft 481 kts 39°
2026-05-08 09:11 49.08109 19.11214 35070 ft 482 kts 40°
2026-05-08 09:12 49.13020 19.18180 35072 ft 482 kts 40°
2026-05-08 09:12 49.17941 19.25174 34530 ft 486 kts 40°
2026-05-08 09:13 49.20410 19.28678 33396 ft 494 kts 39°
2026-05-08 09:13 49.22966 19.32310 32511 ft 494 kts 39°
2026-05-08 09:13 49.25456 19.35863 32028 ft 486 kts 40°
2026-05-08 09:13 49.27883 19.39334 31413 ft 482 kts 40°
2026-05-08 09:14 49.30319 19.42821 30817 ft 477 kts 39°
2026-05-08 09:14 49.32729 19.46277 30237 ft 472 kts 39°
2026-05-08 09:14 49.35114 19.49703 29597 ft 467 kts 39°
2026-05-08 09:14 49.37469 19.53085 29027 ft 460 kts 39°
2026-05-08 09:15 49.39795 19.56423 28484 ft 455 kts 39°
2026-05-08 09:15 49.42096 19.59733 27927 ft 451 kts 40°
2026-05-08 09:15 49.44369 19.63011 27386 ft 446 kts 40°
2026-05-08 09:15 49.46605 19.66296 26856 ft 443 kts 41°
2026-05-08 09:16 49.48758 19.69654 26321 ft 439 kts 43°
2026-05-08 09:16 49.50841 19.73058 25805 ft 435 kts 44°
2026-05-08 09:16 49.52882 19.76471 25307 ft 431 kts 45°
2026-05-08 09:16 49.54899 19.79863 24811 ft 428 kts 45°
2026-05-08 09:17 49.56909 19.83225 24330 ft 424 kts 45°
2026-05-08 09:17 49.58914 19.86541 23856 ft 420 kts 44°
2026-05-08 09:17 49.60909 19.89810 23366 ft 417 kts 44°
2026-05-08 09:17 49.62890 19.93041 22884 ft 413 kts 44°
2026-05-08 09:18 49.64834 19.96210 22429 ft 410 kts 44°
2026-05-08 09:18 49.66787 19.99400 21974 ft 407 kts 44°
2026-05-08 09:18 49.68747 20.02616 21504 ft 405 kts 44°
2026-05-08 09:18 49.70665 20.05772 21044 ft 401 kts 44°
2026-05-08 09:19 49.72530 20.08844 20875 ft 393 kts 44°
2026-05-08 09:19 49.74429 20.11854 20783 ft 389 kts 38°
2026-05-08 09:19 49.76614 20.14242 20692 ft 382 kts 25°
2026-05-08 09:19 49.79048 20.15814 20612 ft 377 kts 12°
2026-05-08 09:20 49.81600 20.16528 20541 ft 371 kts 359°
2026-05-08 09:20 49.84163 20.16379 20460 ft 366 kts 347°
2026-05-08 09:20 49.86646 20.15572 20383 ft 365 kts 343°
2026-05-08 09:20 49.89092 20.14557 19941 ft 365 kts 333°
2026-05-08 09:21 49.91264 20.12541 19026 ft 368 kts 318°
2026-05-08 09:21 49.93255 20.09982 18336 ft 373 kts 317°
2026-05-08 09:22 50.05067 19.94754 15124 ft 361 kts 319°
2026-05-08 09:23 50.06994 19.92269 14623 ft 358 kts 319°
2026-05-08 09:23 50.08906 19.89800 14137 ft 357 kts 319°
2026-05-08 09:23 50.10815 19.87334 13581 ft 356 kts 319°
2026-05-08 09:23 50.12713 19.84880 13034 ft 354 kts 319°
2026-05-08 09:24 50.14598 19.82441 12508 ft 351 kts 319°
2026-05-08 09:24 50.16467 19.80020 11989 ft 348 kts 319°
2026-05-08 09:24 50.18324 19.77610 11464 ft 346 kts 319°
2026-05-08 09:24 50.20165 19.75218 10947 ft 343 kts 319°
2026-05-08 09:25 50.21992 19.72839 10455 ft 340 kts 319°
2026-05-08 09:25 50.23786 19.70503 10165 ft 331 kts 319°
2026-05-08 09:25 50.25528 19.68235 9911 ft 321 kts 319°
2026-05-08 09:25 50.27223 19.66029 9648 ft 312 kts 319°
2026-05-08 09:26 50.28868 19.63880 9382 ft 305 kts 318°
2026-05-08 09:26 50.30477 19.61776 9118 ft 298 kts 318°
2026-05-08 09:26 50.32028 19.59744 8858 ft 291 kts 318°
2026-05-08 09:26 50.33551 19.57747 8571 ft 278 kts 318°
2026-05-08 09:27 50.34999 19.55851 8187 ft 266 kts 318°
2026-05-08 09:27 50.36389 19.54030 7818 ft 255 kts 318°
2026-05-08 09:27 50.37772 19.52378 7436 ft 247 kts 328°
2026-05-08 09:27 50.39348 19.51383 7072 ft 244 kts 346°
2026-05-08 09:28 50.41032 19.51149 6701 ft 244 kts 359°
2026-05-08 09:28 50.42729 19.51191 6323 ft 243 kts 359°
2026-05-08 09:28 50.44412 19.51202 5938 ft 241 kts 354°
2026-05-08 09:28 50.45978 19.50432 5553 ft 236 kts 324°
2026-05-08 09:29 50.47072 19.48580 5180 ft 232 kts 295°
2026-05-08 09:29 50.47459 19.46172 4825 ft 227 kts 270°
2026-05-08 09:29 50.47463 19.43730 4562 ft 221 kts 269°
2026-05-08 09:29 50.47468 19.41344 4300 ft 216 kts 270°
2026-05-08 09:30 50.47479 19.39010 4069 ft 210 kts 270°
2026-05-08 09:30 50.47490 19.36774 3993 ft 201 kts 270°
2026-05-08 09:30 50.47501 19.34668 4018 ft 185 kts 270°
2026-05-08 09:30 50.47510 19.32690 3858 ft 178 kts 271°
2026-05-08 09:31 50.47519 19.30759 3642 ft 176 kts 271°
2026-05-08 09:31 50.47528 19.28847 3430 ft 175 kts 271°
2026-05-08 09:31 50.47536 19.26964 3202 ft 175 kts 271°
2026-05-08 09:31 50.47544 19.25061 2968 ft 174 kts 271°
2026-05-08 09:32 50.47551 19.23173 2736 ft 172 kts 272°
2026-05-08 09:32 50.47558 19.21325 2490 ft 165 kts 272°
2026-05-08 09:32 50.47564 19.19612 2292 ft 151 kts 273°
2026-05-08 09:32 50.47569 19.18014 2090 ft 144 kts 272°
2026-05-08 09:33 50.47573 19.16460 1869 ft 141 kts 272°
2026-05-08 09:33 50.47578 19.14934 1674 ft 139 kts 272°
2026-05-08 09:33 50.47589 19.13415 1481 ft 139 kts 272°
2026-05-08 09:33 50.47589 19.11896 1292 ft 139 kts 271°
2026-05-08 09:34 50.47590 19.10388 1087 ft 138 kts 271°
2026-05-08 09:34 50.47598 19.08916 1000 ft 124 kts 270°
2026-05-08 09:34 50.47599 19.07834 998 ft 74 kts 270°
2026-05-08 09:34 50.47597 19.07272 1002 ft 37 kts 266°
2026-05-08 09:35 50.47529 19.06970 999 ft 18 kts 239°
2026-05-08 09:35 50.47462 19.06791 1000 ft 20 kts 240°
2026-05-08 09:35 50.47385 19.06631 998 ft 16 kts 201°
2026-05-08 09:35 50.47293 19.06626 1000 ft 10 kts 179°
2026-05-08 09:36 50.47242 19.06668 998 ft 8 kts 123°
2026-05-08 09:36 50.47236 19.06745 998 ft 7 kts 89°
2026-05-08 09:36 50.47237 19.06870 998 ft 14 kts 89°
2026-05-08 09:36 50.47236 19.06987 1001 ft 6 kts 91°
2026-05-08 09:37 50.47236 19.07044 998 ft 5 kts 90°
2026-05-08 09:37 50.47235 19.07089 998 ft 4 kts 90°
2026-05-08 09:37 50.47235 19.07120 998 ft 2 kts 90°
2026-05-08 09:37 50.47233 19.07141 1001 ft 4 kts 109°
2026-05-08 09:38 50.47212 19.07150 1000 ft 3 kts 181°
2026-05-08 09:38 50.47196 19.07150 1000 ft 4 kts 181°
2026-05-08 09:38 50.47180 19.07149 1000 ft 1 kts 180°
2026-05-08 09:38 50.47179 19.07149 998 ft 0 kts 180°